Location: Austin
(30.3000°N, 97.7500°W)
Time: 00:25:03
(UTC-06:00)

NOAA 15 - Pass Details

Date: 04 November 2025
Orbit: 795 x 808 km, 98.5° (Epoch: 15 November)

Event Time Altitude Azimuth Distance (km) Brightness Sun altitude
Rises 18:55:32 0° 160° (SSE) 3,293 7.7 -16.5°
Reaches altitude 10° 18:57:51 10° 157° (SSE) 2,368 6.9 -17.0°
Maximum altitude 19:03:03 68° 75° (ENE) 863 4.5 -18.1°
Drops below altitude 10° 19:08:17 10° 353° (N) 2,388 7.0 -19.2°
Sets 19:10:38 0° 351° (N) 3,324 7.8 -19.7°
